UTC time, Altitude (m MSL), Altitude (m AGL), Pressure (Pascal), Speed (m/s), Heading (degrees), Temperature (C), Relative humidity (%), Internal temperature (C), Latitude, Longitude, Rise speed (m/s)
15:48:31, 497, 0, 96454,  ,  , 26.82, 36.45,  ,  ,  , 
15:48:32, 497, 0, 96452,  ,  , 26.72, 36.00,  ,  ,  , 
15:48:33, 497, 0, 96451,  ,  , 26.65, 35.65,  ,  ,  , 
15:48:34, 497, 0, 96450,  ,  , 26.49, 35.50,  ,  ,  , 
15:48:38, 498, 1, 96442,  ,  , 25.73, 35.55,  ,  ,  , 
15:48:39, 498, 1, 96440,  ,  , 25.56, 35.65,  ,  ,  , 
15:48:40, 498, 1, 96438,  ,  , 25.41, 36.05,  ,  ,  , 
15:48:41, 498, 1, 96442,  ,  , 25.25, 36.10,  ,  ,  , 
15:48:42, 497, 0, 96447,  ,  , 25.17, 36.25,  ,  ,  , 
15:48:43, 497, 0, 96452,  ,  , 25.11, 36.65,  ,  ,  , 
15:48:44, 497, 0, 96450,  ,  , 25.08, 37.05,  ,  ,  , 
15:48:45, 497, 0, 96449,  ,  , 25.05, 37.35,  ,  ,  , 
15:48:46, 497, 0, 96448,  ,  , 24.93, 37.35,  ,  ,  , 
15:48:50, 497, 0, 96455,  ,  , 24.79, 37.30,  ,  ,  , 
15:48:51, 496, 0, 96457,  ,  , 24.81, 37.40,  ,  ,  , 
15:48:52, 496, 0, 96460,  ,  , 24.81, 37.55,  ,  ,  , 
15:48:53, 496, 0, 96459,  ,  , 24.83, 37.70,  ,  ,  , 
15:48:54, 496, 0, 96458,  ,  , 24.86, 37.80,  ,  ,  , 
15:48:55, 496, 0, 96458,  ,  , 24.91, 37.75, 37.0,  ,  , 
15:48:56, 496, 0, 96460,  ,  , 25.00, 37.75,  ,  ,  , 
15:48:57, 496, 0, 96463,  ,  , 25.11, 37.50,  ,  ,  , 
15:48:58, 496, 0, 96466,  ,  , 25.23, 37.20,  ,  ,  , 
15:48:59, 495, -1, 96476,  ,  , 25.30, 37.00,  ,  ,  , 
15:49:00, 494, -2, 96486,  ,  , 25.30, 36.85,  ,  ,  , 
15:49:01, 493, -3, 96496,  ,  , 25.25, 36.90,  ,  ,  , 
15:49:02, 494, -2, 96482,  ,  , 25.07, 36.70,  ,  ,  , 
15:49:03, 495, -1, 96469,  ,  , 25.05, 36.80,  ,  ,  , 
15:49:04, 497, 0, 96456,  ,  , 25.05, 36.65,  ,  ,  , 
15:49:05, 497, 0, 96452,  ,  , 24.97, 36.55,  ,  ,  , 
15:49:06, 497, 0, 96449,  ,  , 24.89, 36.55,  ,  ,  , 
15:49:07, 497, 0, 96446,  ,  , 24.77, 36.60,  ,  ,  , 
15:49:08, 498, 1, 96443,  ,  , 24.61, 36.75,  ,  ,  , 
15:49:09, 498, 1, 96440,  ,  , 24.49, 37.10,  ,  ,  , 
15:49:10, 498, 1, 96438,  ,  , 24.40, 37.35,  ,  ,  , 
15:49:14, 497, 0, 96447,  ,  , 23.90, 37.75,  ,  ,  , 
15:49:15, 497, 0, 96449,  ,  , 23.87, 38.05,  ,  ,  , 
15:49:16, 497, 0, 96452,  ,  , 23.87, 38.30,  ,  ,  , 
15:49:17, 497, 0, 96452,  ,  , 23.89, 38.45,  ,  ,  , 
15:49:18, 497, 0, 96452,  ,  , 23.96, 38.45,  ,  ,  , 
15:49:19, 497, 0, 96452,  ,  , 24.07, 38.45,  ,  ,  , 
15:49:20, 497, 0, 96451,  ,  , 24.15, 38.60,  ,  ,  , 
15:49:21, 497, 0, 96450,  ,  , 24.23, 38.75,  ,  ,  , 
15:49:22, 497, 0, 96450,  ,  , 24.31, 38.65, 38.0,  ,  , 
15:49:23, 497, 0, 96451,  ,  , 24.38, 38.35,  ,  ,  , 
15:49:24, 497, 0, 96452,  ,  , 24.45, 38.20,  ,  ,  , 
15:49:25, 497, 0, 96454,  ,  , 24.47, 38.05,  ,  ,  , 
15:49:26, 497, 0, 96453,  ,  , 24.48, 37.95,  ,  ,  , 
15:49:27, 497, 0, 96452,  ,  , 24.46, 38.05,  ,  ,  , 
15:49:28, 497, 0, 96452,  ,  , 24.45, 37.95,  ,  ,  , 
15:49:29, 497, 0, 96450,  ,  , 24.46, 38.05,  ,  ,  , 
15:49:30, 497, 0, 96449,  ,  , 24.46, 38.25,  ,  ,  , 
15:49:31, 497, 0, 96448,  ,  , 24.40, 38.35,  ,  ,  , 
15:49:32, 497, 0, 96450,  ,  , 24.42, 38.55,  ,  ,  , 
15:49:33, 497, 0, 96452,  ,  , 24.48, 38.50,  ,  ,  , 
15:49:34, 497, 0, 96454,  ,  , 24.42, 38.20,  ,  ,  , 
15:49:38, 497, 0, 96449,  ,  , 23.99, 39.65,  ,  ,  , 
15:49:39, 497, 0, 96448,  ,  , 23.99, 39.70,  ,  ,  , 
15:49:40, 497, 0, 96448,  ,  , 24.04, 39.45,  ,  ,  , 
15:49:41, 497, 0, 96451,  ,  , 24.08, 39.15,  ,  ,  , 
15:49:42, 497, 0, 96454,  ,  , 24.12, 38.95,  ,  ,  , 
15:49:43, 496, 0, 96458,  ,  , 24.15, 38.70,  ,  ,  , 
15:49:44, 496, 0, 96458,  ,  , 24.16, 38.50,  ,  ,  , 
15:49:45, 496, 0, 96458,  ,  , 24.23, 38.25,  ,  ,  , 
15:49:46, 496, 0, 96458,  ,  , 24.31, 38.15,  ,  ,  , 
15:49:47, 496, 0, 96456,  ,  , 24.40, 38.05,  ,  ,  , 
15:49:48, 497, 0, 96455,  ,  , 24.53, 38.15,  ,  ,  , 
15:49:49, 497, 0, 96454,  ,  , 24.67, 38.55, 38.5,  ,  , 
15:49:50, 497, 0, 96452,  ,  , 24.80, 38.75,  ,  ,  , 
15:49:51, 497, 0, 96450,  ,  , 24.89, 39.05,  ,  ,  , 
15:49:52, 497, 0, 96448,  ,  , 24.93, 39.75,  ,  ,  , 
15:49:56, 498, 1, 96442,  ,  , 25.00, 41.30,  ,  ,  , 
15:49:57, 498, 1, 96441,  ,  , 25.00, 43.25,  ,  ,  , 
15:49:58, 498, 1, 96440,  ,  , 25.05, 43.30,  ,  ,  , 
15:49:59, 498, 1, 96440,  ,  , 25.06, 42.95,  ,  ,  , 
15:50:00, 498, 1, 96440,  ,  , 25.06, 42.55,  ,  ,  , 
15:50:01, 498, 1, 96440,  ,  , 25.07, 42.20,  ,  ,  , 
15:50:02, 498, 1, 96440,  ,  , 25.27, 42.15,  ,  ,  , 
15:50:03, 498, 1, 96440,  ,  , 25.54, 42.45,  ,  ,  , 
15:50:04, 498, 1, 96440,  ,  , 25.70, 42.35,  ,  ,  , 
15:50:05, 498, 1, 96444,  ,  , 25.80, 41.70,  ,  ,  , 
15:50:06, 497, 0, 96449,  ,  , 25.99, 41.40,  ,  ,  , 
15:50:07, 497, 0, 96454,  ,  , 26.05, 41.55,  ,  ,  , 
15:50:08, 496, 0, 96458,  ,  , 26.25, 41.45,  ,  ,  , 
15:50:09, 496, 0, 96463,  ,  , 26.20, 40.60,  ,  ,  , 
15:50:10, 495, -1, 96468,  ,  , 26.02, 39.50,  ,  ,  , 
15:50:11, 495, -1, 96467,  ,  , 26.01, 38.65,  ,  ,  , 
15:50:12, 496, 0, 96466,  ,  , 26.01, 38.05,  ,  ,  , 
15:50:13, 496, 0, 96466,  ,  , 25.93, 37.60,  ,  ,  , 
15:50:14, 496, 0, 96463,  ,  , 25.84, 37.45,  ,  ,  , 
15:50:15, 496, 0, 96461,  ,  , 25.72, 37.40,  ,  ,  , 
15:50:16, 496, 0, 96460,  ,  , 25.58, 37.50, 38.8,  ,  , 
15:50:17, 496, 0, 96463,  ,  , 25.41, 37.75,  ,  ,  , 
15:50:18, 496, 0, 96466,  ,  , 25.21, 38.20,  ,  ,  , 
15:50:19, 495, -1, 96470,  ,  , 24.99, 38.60,  ,  ,  , 
15:50:23, 493, -3, 96499,  ,  , 24.10, 39.35,  ,  ,  , 
15:50:24, 492, -4, 96506,  ,  , 24.15, 39.50,  ,  ,  , 
15:50:25, 491, -5, 96514,  ,  , 24.06, 39.85,  ,  ,  , 
15:50:26, 493, -3, 96492,  ,  , 23.84, 40.15,  ,  ,  , 
15:50:27, 495, -1, 96472,  ,  , 23.63, 40.25,  ,  ,  , 
15:50:28, 497, 0, 96452,  ,  , 23.54, 40.60,  ,  ,  , 
15:50:29, 496, 0, 96456,  ,  , 23.50, 41.05,  ,  ,  , 
15:50:30, 496, 0, 96460,  ,  , 23.52, 41.55,  ,  ,  , 
15:50:31, 496, 0, 96464,  ,  , 23.58, 41.90,  ,  ,  , 
15:50:32, 495, -1, 96468,  ,  , 23.71, 42.10,  ,  ,  , 
15:50:33, 495, -1, 96473,  ,  , 23.88, 42.10,  ,  ,  , 
15:50:34, 494, -2, 96478,  ,  , 24.03, 42.00,  ,  ,  , 
15:50:35, 494, -2, 96478,  ,  , 24.12, 41.95,  ,  ,  , 
15:50:36, 494, -2, 96478,  ,  , 24.30, 41.75,  ,  ,  , 
15:50:37, 494, -2, 96478,  ,  , 24.53, 41.50,  ,  ,  , 
15:50:38, 494, -2, 96478,  ,  , 24.77, 41.25,  ,  ,  , 
15:50:39, 494, -2, 96479,  ,  , 24.89, 41.05,  ,  ,  , 
15:50:40, 494, -2, 96480,  ,  , 24.92, 41.10,  ,  ,  , 
15:50:41, 495, -1, 96472,  ,  , 24.87, 41.30,  ,  ,  , 
15:50:42, 496, 0, 96465,  ,  , 24.71, 41.35,  ,  ,  , 
15:50:43, 496, 0, 96458,  ,  , 24.52, 41.60, 40.5,  ,  , 
15:50:44, 496, 0, 96460,  ,  , 24.31, 41.60,  ,  ,  , 
15:50:45, 496, 0, 96463,  ,  , 24.13, 41.60,  ,  ,  , 
15:50:46, 496, 0, 96466,  ,  , 23.81, 41.65,  ,  ,  , 
15:50:47, 496, 0, 96463,  ,  , 23.54, 41.95,  ,  ,  , 
15:50:48, 496, 0, 96461,  ,  , 23.22, 42.20,  ,  ,  , 
15:50:49, 496, 0, 96460,  ,  , 22.89, 42.50,  ,  ,  , 
15:50:50, 497, 0, 96454,  ,  , 22.61, 42.95,  ,  ,  , 
15:50:51, 497, 0, 96449,  ,  , 22.31, 43.35,  ,  ,  , 
15:50:52, 498, 1, 96444,  ,  , 22.06, 43.70,  ,  ,  , 
15:50:53, 498, 1, 96443,  ,  , 21.84, 44.15,  ,  ,  , 
15:50:54, 498, 1, 96442,  ,  , 21.66, 44.60,  ,  ,  , 
15:50:55, 498, 1, 96442,  ,  , 21.53, 44.85,  ,  ,  , 
15:50:56, 497, 0, 96445,  ,  , 21.42, 45.30,  ,  ,  , 
15:50:57, 497, 0, 96448,  ,  , 21.40, 45.90,  ,  ,  , 
15:50:58, 497, 0, 96452,  ,  , 21.42, 46.40,  ,  ,  , 
15:50:59, 497, 0, 96452,  ,  , 21.44, 46.75,  ,  ,  , 
15:51:00, 497, 0, 96453,  ,  , 21.68, 47.15,  ,  ,  , 
15:51:01, 497, 0, 96454,  ,  , 22.00, 47.40,  ,  ,  , 
15:51:02, 497, 0, 96453,  ,  , 22.21, 47.40,  ,  ,  , 
15:51:03, 497, 0, 96452,  ,  , 22.31, 47.30,  ,  ,  , 
15:51:04, 497, 0, 96452,  ,  , 22.44, 47.25,  ,  ,  , 
15:51:05, 497, 0, 96454,  ,  , 22.62, 47.25,  ,  ,  , 
15:51:06, 496, 0, 96456,  ,  , 22.79, 47.10,  ,  ,  , 
15:51:07, 496, 0, 96458,  ,  , 23.05, 47.05,  ,  ,  , 
15:51:08, 497, 0, 96455,  ,  , 23.22, 47.05,  ,  ,  , 
15:51:09, 497, 0, 96452,  ,  , 23.28, 47.00,  ,  ,  , 
15:51:10, 497, 0, 96450,  ,  , 23.22, 46.90, 41.0,  ,  , 
15:51:11, 497, 0, 96448,  ,  , 23.24, 46.70,  ,  ,  , 
15:51:12, 497, 0, 96447,  ,  , 23.31, 46.85,  ,  ,  , 
15:51:13, 497, 0, 96446,  ,  , 23.49, 47.00,  ,  ,  , 
15:51:14, 497, 0, 96446,  ,  , 23.65, 46.50,  ,  ,  , 
15:51:15, 497, 0, 96446,  ,  , 23.64, 45.65,  ,  ,  , 
15:51:16, 497, 0, 96446,  ,  , 23.62, 44.75,  ,  ,  , 
15:51:17, 497, 0, 96451,  ,  , 23.67, 44.00,  ,  ,  , 
15:51:18, 496, 0, 96456,  ,  , 23.63, 43.35,  ,  ,  , 
15:51:19, 496, 0, 96462,  ,  , 23.67, 42.80,  ,  ,  , 
15:51:20, 496, 0, 96461,  ,  , 23.65, 42.70,  ,  ,  , 
15:51:21, 496, 0, 96460,  ,  , 23.78, 42.95,  ,  ,  , 
15:51:22, 496, 0, 96460,  ,  , 23.88, 42.85,  ,  ,  , 
15:51:23, 496, 0, 96456,  ,  , 23.97, 42.85,  ,  ,  , 
15:51:24, 497, 0, 96453,  ,  , 24.02, 42.90,  ,  ,  , 
15:51:25, 497, 0, 96450,  ,  , 23.98, 43.00,  ,  ,  , 
15:51:26, 496, 0, 96458,  ,  , 23.95, 43.15,  ,  ,  , 
15:51:27, 496, 0, 96466,  ,  , 23.94, 43.25,  ,  ,  , 
15:51:28, 495, -1, 96474,  ,  , 23.84, 43.60,  ,  ,  , 
15:51:30, 495, -1, 96469,  ,  , 23.78, 43.75,  ,  ,  , 
15:51:31, 496, 0, 96465,  ,  , 23.68, 43.75,  ,  ,  , 
15:51:32, 496, 0, 96462,  ,  , 23.66, 43.60,  ,  ,  , 
15:51:32, 496, 0, 96458,  ,  , 23.71, 43.25,  ,  ,  , 
15:51:33, 497, 0, 96454,  ,  , 23.82, 43.15,  ,  ,  , 
15:51:34, 497, 0, 96450,  ,  , 23.88, 43.20,  ,  ,  , 
15:51:35, 497, 0, 96446,  ,  , 23.91, 43.35,  ,  ,  , 
15:51:36, 498, 1, 96443,  ,  , 23.89, 43.40,  ,  ,  , 
15:51:37, 498, 1, 96440,  ,  , 23.87, 43.60, 41.8,  ,  , 
15:51:38, 497, 0, 96445,  ,  , 23.83, 44.00,  ,  ,  , 
15:51:39, 497, 0, 96450,  ,  , 23.93, 44.50,  ,  ,  , 
15:51:40, 497, 0, 96456,  ,  , 23.97, 44.95,  ,  ,  , 
15:51:42, 496, 0, 96460,  ,  , 23.98, 45.50,  ,  ,  , 
15:51:43, 496, 0, 96465,  ,  , 24.11, 46.00,  ,  ,  , 
15:51:44, 495, -1, 96470,  ,  , 24.15, 46.60,  ,  ,  , 
15:51:45, 496, 0, 96458,  ,  , 24.22, 47.05,  ,  ,  , 
15:51:46, 497, 0, 96447,  ,  , 24.24, 47.65,  ,  ,  , 
15:51:47, 498, 1, 96436,  ,  , 24.30, 48.25,  ,  ,  , 
15:51:48, 498, 1, 96440,  ,  , 24.38, 48.60,  ,  ,  , 
15:51:49, 498, 1, 96444,  ,  , 24.41, 48.65,  ,  ,  , 
15:51:50, 497, 0, 96448,  ,  , 24.53, 48.90,  ,  ,  , 
15:51:51, 498, 1, 96444,  ,  , 24.54, 48.80,  ,  ,  , 
15:51:52, 498, 1, 96441,  ,  , 24.41, 48.35,  ,  ,  , 
15:51:53, 498, 1, 96438,  ,  , 24.36, 47.70,  ,  ,  , 
15:51:54, 497, 0, 96446,  ,  , 24.28, 47.05,  ,  ,  , 
15:51:55, 497, 0, 96455,  ,  , 24.30, 46.65,  ,  ,  , 
15:51:56, 496, 0, 96464,  ,  , 24.30, 46.40,  ,  ,  , 
15:51:57, 496, 0, 96461,  ,  , 24.37, 46.30,  ,  ,  , 
15:51:58, 496, 0, 96459,  ,  , 24.49, 46.25,  ,  ,  , 
15:51:59, 496, 0, 96458,  ,  , 24.61, 46.05,  ,  ,  , 
15:52:00, 497, 0, 96455,  ,  , 24.68, 45.60,  ,  ,  , 
15:52:01, 497, 0, 96453,  ,  , 24.77, 45.05,  ,  ,  , 
15:52:02, 497, 0, 96452,  ,  , 24.82, 44.50,  ,  ,  , 
15:52:03, 497, 0, 96448,  ,  , 24.79, 43.95,  ,  ,  , 
15:52:04, 498, 1, 96444,  ,  , 24.77, 43.80,  ,  ,  , 
15:52:05, 498, 1, 96440,  ,  , 24.78, 44.15, 42.2,  ,  , 
15:52:06, 498, 1, 96440,  ,  , 24.78, 44.20,  ,  ,  , 
15:52:07, 498, 1, 96441,  ,  , 24.80, 44.35,  ,  ,  , 
15:52:08, 498, 1, 96442,  ,  , 24.83, 44.40,  ,  ,  , 
15:52:09, 498, 1, 96442,  ,  , 24.80, 44.50,  ,  ,  , 
15:52:10, 498, 1, 96442,  ,  , 24.75, 44.70,  ,  ,  , 
15:52:11, 498, 1, 96442,  ,  , 24.72, 45.10,  ,  ,  , 
15:52:12, 498, 1, 96441,  ,  , 24.74, 45.50,  ,  ,  , 
15:52:13, 498, 1, 96440,  ,  , 24.71, 46.35,  ,  ,  , 
15:52:14, 498, 1, 96440,  ,  , 24.62, 46.55,  ,  ,  , 
15:52:15, 498, 1, 96438,  ,  , 24.54, 46.35,  ,  ,  , 
15:52:16, 498, 1, 96437,  ,  , 24.50, 46.00,  ,  ,  , 
15:52:17, 498, 1, 96436,  ,  , 24.49, 45.20,  ,  ,  , 
15:52:18, 498, 1, 96437,  ,  , 24.49, 44.55,  ,  ,  , 
15:52:19, 498, 1, 96438,  ,  , 24.51, 44.30,  ,  ,  , 
15:52:20, 498, 1, 96440,  ,  , 24.53, 43.95,  ,  ,  , 
15:52:21, 498, 1, 96440,  ,  , 24.62, 43.75,  ,  ,  , 
15:52:22, 498, 1, 96440,  ,  , 24.71, 43.70,  ,  ,  , 
15:52:23, 498, 1, 96440,  ,  , 24.84, 43.65,  ,  ,  , 
15:52:24, 498, 1, 96438,  ,  , 24.94, 43.55,  ,  ,  , 
15:52:25, 498, 1, 96437,  ,  , 25.10, 43.70,  ,  ,  , 
15:52:26, 498, 1, 96436,  ,  , 25.27, 43.65,  ,  ,  , 
15:52:27, 498, 1, 96437,  ,  , 25.44, 44.00,  ,  ,  , 
15:52:28, 498, 1, 96438,  ,  , 25.57, 44.00,  ,  ,  , 
15:52:29, 498, 1, 96440,  ,  , 25.69, 43.70,  ,  ,  , 
15:52:30, 498, 1, 96438,  ,  , 25.86, 43.60,  ,  ,  , 
15:52:31, 498, 1, 96437,  ,  , 26.01, 43.70,  ,  ,  , 
15:52:32, 498, 1, 96436,  ,  , 26.06, 43.00, 42.0,  ,  , 
15:52:33, 498, 1, 96437,  ,  , 26.17, 41.75,  ,  ,  , 
15:52:34, 498, 1, 96438,  ,  , 26.26, 40.65,  ,  ,  , 
15:52:35, 498, 1, 96440,  ,  , 26.28, 39.80,  ,  ,  , 
15:52:36, 498, 1, 96441,  ,  , 26.23, 38.60,  ,  ,  , 
15:52:37, 498, 1, 96442,  ,  , 26.11, 37.55,  ,  ,  , 
15:52:38, 498, 1, 96444,  ,  , 26.01, 36.30,  ,  ,  , 
15:52:39, 497, 0, 96447,  ,  , 25.63, 35.50,  ,  ,  , 
15:52:40, 497, 0, 96450,  ,  , 25.40, 34.95,  ,  ,  , 
15:52:41, 497, 0, 96454,  ,  , 25.14, 34.50,  ,  ,  , 
15:52:42, 497, 0, 96453,  ,  , 24.90, 34.25,  ,  ,  , 
15:52:43, 497, 0, 96452,  ,  , 24.67, 34.30,  ,  ,  , 
15:52:44, 497, 0, 96452,  ,  , 24.49, 34.65,  ,  ,  , 
15:52:45, 497, 0, 96451,  ,  , 24.35, 34.90,  ,  ,  , 
15:52:46, 497, 0, 96450,  ,  , 24.28, 35.35,  ,  ,  , 
15:52:47, 497, 0, 96450,  ,  , 24.21, 35.90,  ,  ,  , 
15:52:48, 496, 0, 96456,  ,  , 24.09, 36.30,  ,  ,  , 
15:52:49, 496, 0, 96463,  ,  , 24.04, 36.70,  ,  ,  , 
15:52:50, 495, -1, 96470,  ,  , 24.04, 37.30,  ,  ,  , 
15:52:51, 495, -1, 96467,  ,  , 24.09, 37.90,  ,  ,  , 
15:52:52, 496, 0, 96465,  ,  , 24.04, 38.25,  ,  ,  , 
15:52:53, 496, 0, 96464,  ,  , 24.07, 38.85,  ,  ,  , 
15:52:57, 497, 0, 96454,  ,  , 24.08, 42.00,  ,  ,  , 
15:52:58, 497, 0, 96452,  ,  , 24.15, 42.60,  ,  ,  , 
15:52:59, 497, 0, 96450,  ,  , 24.20, 42.95, 40.8,  ,  , 
15:53:00, 497, 0, 96450,  ,  , 24.35, 43.45,  ,  ,  , 
15:53:01, 497, 0, 96450,  ,  , 24.46, 43.45,  ,  ,  , 
15:53:02, 497, 0, 96450,  ,  , 24.50, 43.20,  ,  ,  , 
15:53:03, 497, 0, 96448,  ,  , 24.54, 43.35,  ,  ,  , 
15:53:04, 497, 0, 96447,  ,  , 24.71, 43.90,  ,  ,  , 
15:53:05, 497, 0, 96446,  ,  , 24.84, 43.95,  ,  ,  , 
15:53:06, 497, 0, 96450,  ,  , 24.89, 43.70,  ,  ,  , 
15:53:07, 497, 0, 96454,  ,  , 24.91, 43.55,  ,  ,  , 
15:53:08, 496, 0, 96458,  ,  , 24.91, 43.80,  ,  ,  , 
15:53:11, 497, 0, 96446, 1.25, 313.50, 24.94, 44.25,  , 45.886482, -90.328540, 
15:53:13, 498, 1, 96444, 0.35, 224.30, 24.89, 44.20,  ,  ,  , 0
15:53:14, 498, 1, 96444, 0.55, 83.60, 24.80, 44.15,  , 45.886395, -90.328482, 0
15:53:17, 497, 0, 96446, 0.65, 328.90, 24.62, 43.70,  , 45.886268, -90.328387, 0
15:53:18, 497, 0, 96445, 0.25, 328.90, 24.48, 42.85,  ,  ,  , 0
15:53:19, 498, 1, 96444, 0.30, 38.20, 24.34, 42.40,  ,  ,  , 0
15:53:20, 498, 1, 96444, 0.15, 38.20, 24.20, 41.90,  , 45.886390, -90.328507, 0.1
15:53:21, 497, 0, 96446, 0.60, 33.70, 24.08, 41.20,  ,  ,  , 0.1
15:53:22, 497, 0, 96449, 0.20, 33.70, 23.91, 40.55,  ,  ,  , 0.1
15:53:23, 497, 0, 96452, 0.20, 33.70, 23.80, 40.15,  , 45.886277, -90.328440, 0
15:53:25, 498, 1, 96443, 0.35, 319.10, 23.58, 39.50,  ,  ,  , 0
15:53:26, 498, 1, 96440, 1.20, 153.20, 23.47, 39.30, 39.5, 45.886420, -90.328492, 0
15:53:27, 497, 0, 96446, 0.25, 153.20, 23.32, 39.05,  ,  ,  , 0
15:53:28, 497, 0, 96453, 1.20, 353.00, 23.32, 39.05,  ,  ,  , -0.1
15:53:29, 496, 0, 96460, 1.75, 342.10, 23.22, 39.35,  , 45.886440, -90.328497, -0.1
15:53:30, 496, 0, 96461, 0.15, 342.10, 23.21, 39.80,  ,  ,  , -0.1
15:53:31, 496, 0, 96463, 1.00, 348.20, 23.21, 39.90,  ,  ,  , -0.1
15:53:32, 496, 0, 96466, 0.35, 324.90, 23.18, 39.90,  , 45.886130, -90.328327, -0.2
15:53:33, 495, -1, 96467, 0.40, 346.60, 23.16, 39.85,  ,  ,  , -0.2
15:53:34, 495, -1, 96468, 0.10, 346.60, 23.15, 39.85,  ,  ,  , -0.1
15:53:35, 495, -1, 96470, 0.25, 346.60, 23.14, 40.20,  , 45.886373, -90.328468, -0.1
15:53:36, 495, -1, 96472, 0.10, 346.60, 23.16, 40.45,  ,  ,  , -0.1
15:53:37, 495, -1, 96474, 0.00, 346.60, 23.15, 40.70,  ,  ,  , -0.2
15:53:38, 495, -1, 96476, 0.10, 346.60, 23.22, 41.00,  , 45.886253, -90.328400, -0.3
15:53:39, 495, -1, 96472, 0.15, 346.60, 23.24, 41.10,  ,  ,  , -0.2
15:53:40, 495, -1, 96468, 0.25, 346.60, 23.25, 41.10,  ,  ,  , -0.2
15:53:41, 496, 0, 96464, 0.05, 346.60, 23.33, 41.35,  , 45.886268, -90.328413, -0.1
15:53:42, 495, -1, 96468, 0.55, 134.20, 23.41, 41.70,  ,  ,  , 0
15:53:43, 495, -1, 96472, 0.85, 133.60, 23.47, 41.85,  ,  ,  , -0.1
15:53:44, 495, -1, 96476, 0.35, 193.50, 23.54, 41.90,  , 45.886250, -90.328397, -0.1
15:53:46, 494, -2, 96478, 0.30, 253.80, 23.78, 42.50,  ,  ,  , -0.1
15:53:47, 494, -2, 96480, 0.75, 196.20, 23.91, 42.55,  , 45.886215, -90.328385, -0.1
15:53:48, 495, -1, 96476, 1.15, 200.40, 24.03, 42.55,  ,  ,  , 0
15:53:49, 495, -1, 96472, 1.80, 183.20, 24.15, 42.50,  ,  ,  , 0
15:53:50, 495, -1, 96468, 2.45, 160.50, 24.22, 42.45,  , 45.886130, -90.328370, 0
15:53:51, 495, -1, 96473, 2.75, 156.50, 24.28, 42.40,  ,  ,  , 0
15:53:52, 494, -2, 96478, 2.40, 162.40, 24.38, 42.50,  ,  ,  , -0.1
15:53:53, 494, -2, 96484, 1.85, 172.40, 24.38, 42.35, 40.2, 45.886067, -90.328330, -0.2
15:53:54, 494, -2, 96484, 1.90, 172.40, 24.42, 42.30,  ,  ,  , -0.1
15:53:55, 494, -2, 96484, 0.90, 165.80, 24.40, 42.25,  ,  ,  , -0.1
15:53:56, 494, -2, 96484, 0.65, 298.60, 24.38, 42.20,  , 45.886108, -90.328347, -0.1
15:53:57, 495, -1, 96476, 1.40, 290.30, 24.31, 42.45,  ,  ,  , 0
15:53:58, 495, -1, 96468, 1.10, 267.70, 24.25, 43.60,  ,  ,  , 0.1
15:53:59, 496, 0, 96460, 0.60, 239.70, 24.15, 44.25,  , 45.886170, -90.328433, 0.1
15:54:00, 495, -1, 96474, 0.70, 162.50, 24.05, 44.05,  ,  ,  , 0
15:54:01, 494, -2, 96488, 0.70, 266.20, 23.90, 43.85,  ,  ,  , -0.1
15:54:02, 492, -4, 96502, 0.95, 244.50, 23.82, 44.50,  , 45.886198, -90.328480, -0.3
15:54:03, 493, -3, 96492, 0.75, 175.00, 23.80, 44.65,  ,  ,  , -0.1
15:54:04, 494, -2, 96483, 0.10, 175.00, 23.79, 44.65,  ,  ,  , 0
15:54:05, 495, -1, 96474, 0.75, 320.30, 23.82, 44.80,  , 45.886195, -90.328495, 0.1
15:54:06, 494, -2, 96483, 0.20, 320.30, 23.82, 45.05,  ,  ,  , 0
15:54:07, 493, -3, 96492, 0.40, 223.40, 23.71, 45.05,  ,  ,  , -0.1
15:54:08, 492, -4, 96502, 0.30, 223.40, 23.64, 44.60,  , 45.886188, -90.328498, -0.1
15:54:10, 496, 0, 96463, 0.10, 144.60, 23.47, 43.70,  ,  ,  , 0
15:54:11, 498, 1, 96444, 0.15, 144.60, 23.37, 43.30,  , 45.886187, -90.328480, 0.1
15:54:12, 499, 2, 96429, 0.45, 144.90, 23.36, 43.15,  ,  ,  , 0.3
15:54:13, 500, 3, 96414, 1.50, 349.80, 23.32, 42.90,  ,  ,  , 0.6
15:54:14, 502, 5, 96400, 4.00, 335.60, 23.25, 42.80,  , 45.886263, -90.328502, 0.8
15:54:15, 503, 6, 96383, 3.75, 323.70, 23.21, 42.50,  ,  ,  , 0.8
15:54:16, 505, 8, 96365, 1.30, 0.70, 23.21, 42.20,  ,  ,  , 0.9
15:54:17, 506, 9, 96348, 1.65, 141.70, 23.09, 41.85,  , 45.886258, -90.328493, 1.0
15:54:18, 506, 9, 96350, 3.05, 188.70, 22.99, 41.75,  ,  ,  , 1.0
15:54:19, 506, 9, 96352, 2.70, 175.90, 22.86, 41.40,  ,  ,  , 1.1
15:54:20, 506, 9, 96354, 2.00, 146.40, 22.80, 40.90, 40.8, 45.886172, -90.328475, 1.1
15:54:21, 506, 9, 96353, 2.55, 174.80, 22.64, 40.20,  ,  ,  , 1.0
15:54:22, 506, 9, 96352, 2.70, 214.00, 22.43, 39.60,  ,  ,  , 0.8
15:54:23, 506, 9, 96352, 3.30, 242.20, 22.23, 39.35,  , 45.886125, -90.328520, 0.7
15:54:24, 507, 10, 96340, 3.80, 251.20, 22.09, 39.40,  ,  ,  , 0.7
15:54:25, 508, 11, 96328, 1.80, 202.50, 22.05, 39.40,  ,  ,  , 0.7
15:54:26, 509, 12, 96316, 3.40, 162.00, 21.90, 39.25,  , 45.886033, -90.328567, 0.7
15:54:27, 510, 13, 96303, 3.40, 184.90, 21.67, 39.10,  ,  ,  , 0.6
15:54:28, 511, 14, 96291, 4.85, 196.30, 21.39, 38.90,  ,  ,  , 0.6
15:54:29, 512, 15, 96280, 5.00, 197.40, 21.26, 38.90,  , 45.885932, -90.328613, 0.5
15:54:30, 512, 15, 96289, 4.55, 178.50, 21.24, 38.90,  ,  ,  , 0.5
15:54:31, 511, 14, 96298, 2.50, 192.60, 21.19, 38.90,  ,  ,  , 0.4
15:54:32, 510, 13, 96308, 4.00, 192.40, 21.22, 38.95,  , 45.885803, -90.328630, 0.3
15:54:33, 510, 13, 96304, 4.70, 185.80, 21.24, 39.10,  ,  ,  , 0.3
15:54:34, 511, 14, 96301, 3.95, 187.60, 21.26, 39.10,  ,  ,  , 0.4
15:54:35, 511, 14, 96298, 4.30, 187.80, 21.24, 39.05,  , 45.885680, -90.328648, 0.4
15:54:36, 512, 15, 96288, 4.45, 183.70, 21.16, 39.05,  ,  ,  , 0.4
15:54:37, 513, 16, 96279, 4.95, 196.00, 21.15, 39.15,  ,  ,  , 0.4
15:54:38, 513, 16, 96270, 5.90, 203.90, 21.13, 39.20,  , 45.885545, -90.328680, 0.3
15:54:40, 514, 17, 96267, 3.95, 205.70, 21.16, 39.45,  ,  ,  , 0.2
15:54:41, 514, 17, 96266, 4.10, 239.70, 21.14, 39.50,  , 45.885452, -90.328758, 0.1
15:54:43, 518, 21, 96215, 5.10, 205.40, 21.02, 39.50,  ,  ,  , 0.5
15:54:44, 521, 24, 96190, 5.70, 204.90, 21.01, 39.55,  , 45.885273, -90.328802, 0.8
15:54:47, 524, 27, 96156, 3.65, 220.80, 21.07, 39.55, 40.5, 45.885153, -90.328890, 1.1
15:54:49, 526, 29, 96130, 5.00, 216.90, 21.15, 39.60,  ,  ,  , 1.1
15:54:50, 527, 30, 96118, 4.15, 215.30, 21.20, 39.65,  , 45.885053, -90.328982, 1.1
15:54:52, 529, 32, 96102, 4.60, 213.70, 21.15, 39.60,  ,  ,  , 1.1
15:54:53, 529, 32, 96094, 5.60, 207.40, 21.19, 39.55,  , 45.884957, -90.329073, 1.2
15:54:54, 530, 33, 96091,  ,  , 21.20, 39.45,  ,  ,  , 1.2
15:54:55, 530, 33, 96088,  ,  , 21.19, 39.45,  ,  ,  , 1.0
15:54:56, 530, 33, 96086,  ,  , 21.13, 39.50,  ,  ,  , 0.8
15:54:57, 531, 34, 96073, 5.65, 220.30, 21.07, 39.50,  ,  ,  , 0.8
15:54:58, 532, 35, 96061, 5.30, 205.20, 21.07, 39.50,  ,  ,  , 0.8
15:54:59, 533, 36, 96050, 4.50, 189.40, 21.07, 39.55,  , 45.884785, -90.329267, 0.8
15:55:00, 534, 37, 96043, 4.50, 215.10, 21.02, 39.60,  ,  ,  , 0.8
15:55:01, 534, 37, 96036, 5.75, 217.70, 21.10, 39.65,  ,  ,  , 0.8
15:55:02, 535, 38, 96030, 6.00, 213.80, 21.22, 39.70,  , 45.884675, -90.329390, 0.7
15:55:03, 536, 39, 96019, 6.95, 210.80, 21.22, 39.70,  ,  ,  , 0.7
15:55:04, 537, 40, 96008, 6.10, 211.10, 21.16, 39.65,  ,  ,  , 0.7
15:55:05, 538, 41, 95998, 6.10, 223.90, 21.07, 39.65,  , 45.884537, -90.329522, 0.7
15:55:06, 540, 43, 95978, 5.10, 227.50, 21.10, 39.70,  ,  ,  , 0.8
15:55:07, 541, 44, 95959, 4.20, 212.60, 21.09, 39.70,  ,  ,  , 1.0
15:55:08, 543, 46, 95940, 4.85, 223.50, 21.09, 39.75,  , 45.884435, -90.329635, 1.1
15:55:10, 547, 50, 95900, 4.05, 214.10, 21.07, 39.75,  ,  ,  , 1.2
15:55:11, 549, 52, 95880, 4.85, 218.90, 20.99, 39.75,  , 45.884338, -90.329735, 1.3
15:55:12, 551, 54, 95850, 4.80, 223.60, 20.95, 39.75,  ,  ,  , 1.4
15:55:13, 554, 57, 95822, 4.25, 221.00, 20.94, 39.80,  ,  ,  , 1.6
15:55:14, 556, 59, 95794, 3.50, 221.30, 20.92, 39.85, 41.0, 45.884250, -90.329847, 1.8
15:55:15, 559, 62, 95766, 2.75, 224.00, 21.08, 39.90,  ,  ,  , 1.9
15:55:16, 561, 64, 95739, 3.95, 193.80, 21.21, 39.95,  ,  ,  , 2.0
15:55:17, 564, 67, 95712, 3.55, 188.40, 21.20, 39.90,  , 45.884168, -90.329895, 2.2
15:55:18, 566, 69, 95687, 2.60, 200.20, 21.19, 39.80,  ,  ,  , 2.2
15:55:19, 568, 71, 95661, 3.15, 188.70, 21.17, 39.70,  ,  ,  , 2.2
15:55:20, 571, 74, 95636, 4.40, 180.20, 21.14, 39.65,  , 45.884082, -90.329900, 2.3
15:55:21, 573, 76, 95612, 4.25, 179.70, 21.13, 39.65,  ,  ,  , 2.3
15:55:22, 575, 78, 95589, 4.30, 176.50, 21.10, 39.60,  ,  ,  , 2.3
15:55:23, 577, 80, 95566, 4.85, 185.70, 21.14, 39.60,  , 45.883967, -90.329905, 2.4
15:55:24, 579, 82, 95540, 5.65, 166.00, 21.25, 39.65,  ,  ,  , 2.3
15:55:25, 582, 85, 95515, 5.85, 151.70, 21.25, 39.60,  ,  ,  , 2.3
15:55:26, 584, 87, 95490, 5.75, 156.60, 21.19, 39.55,  , 45.883825, -90.329833, 2.3
15:55:27, 585, 88, 95474, 6.35, 161.90, 21.10, 39.50,  ,  ,  , 2.2
15:55:28, 587, 90, 95458, 7.10, 161.00, 20.98, 39.50,  ,  ,  , 2.2
15:55:29, 588, 91, 95442, 7.10, 156.90, 20.92, 39.55,  , 45.883643, -90.329718, 2.1
15:55:30, 591, 94, 95418, 6.25, 158.90, 20.83, 39.60,  ,  ,  , 2.0